Weather History for Orange City, IA

Change the Weather History Date:

Tuesday, May 14, 2013

  Actual Average Record
Temperature  
Mean Temperature 78 °F -  
Max Temperature 100 °F 68 °F 100 °F (2013)
Min Temperature 57 °F 48 °F 39 °F (1953)
Cooling Degree Days 14    
Growing Degree Days 28 (Base 50)    
Moisture  
Dew Point 40 °F    
Average Humidity 34    
Maximum Humidity 72    
Minimum Humidity 9    
Precipitation  
Precipitation 0.00 in - - ()
Sea Level Pressure  
Sea Level Pressure 29.70 in    
Wind  
Wind Speed 10 mph (West)    
Max Wind Speed 28 mph    
Max Gust Speed 37 mph    
Visibility 10 miles    
Events      
Averages and records for this station are not official NWS values.
T = Trace of Precipitation, MM = Missing Value Source: NWS Daily Summary

Daily Weather History Graph

Daily Weather History Graph

Search for Another Location

Airport:

Trip Planner

Search our weather history database for the weather conditions in past years. The results will help you decide how hot, cold, wet, or windy it might be!

Date:

Astronomy

May. 14, 2013 Rise Set
Actual Time 6:01 AM CDT 8:40 PM CDT
Civil Twilight 5:29 AM CDT 9:12 PM CDT
Nautical Twilight 4:48 AM CDT 9:53 PM CDT
Astronomical Twilight 4:02 AM CDT 10:40 PM CDT
Moon 9:42 AM CDT (5/14) No Moon Set
Length of Visible Light 15h 43m
Length of Day
14h 38m
Waxing Crescent, 19% of the Moon is Illuminated
May 14
Waxing Crescent
May 17
First Quarter
May 24
Full
May 31
Last Quarter
Jun 8
New

Hourly Weather History & Observations

Time (CDT) Temp. Dew Point Humidity Pressure Visibility Wind Dir Wind Speed Gust Speed Precip Events Conditions
12:15 AM 66.2 °F 46.4 °F 49% 29.78 in 10.0 mi SSW 5.8 mph - N/A   Clear
12:35 AM 64.4 °F 46.4 °F 52% 29.78 in 10.0 mi SSW 4.6 mph - N/A   Clear
12:55 AM 64.4 °F 46.4 °F 52% 29.78 in 10.0 mi SSW 4.6 mph - N/A   Clear
1:15 AM 64.4 °F 46.4 °F 52% 29.78 in 10.0 mi SSW 3.5 mph - N/A   Clear
1:35 AM 62.6 °F 48.2 °F 59% 29.77 in 10.0 mi SSW 3.5 mph - N/A   Clear
1:55 AM 60.8 °F 48.2 °F 63% 29.78 in 10.0 mi SW 8.1 mph - N/A   Clear
2:15 AM 64.4 °F 48.2 °F 56% 29.76 in 10.0 mi South 3.5 mph - N/A   Clear
2:35 AM 60.8 °F 48.2 °F 63% 29.77 in 10.0 mi South 5.8 mph - N/A   Clear
2:55 AM 60.8 °F 51.8 °F 72% 29.76 in 10.0 mi South 3.5 mph - N/A   Clear
3:15 AM 62.6 °F 50.0 °F 63% 29.76 in 10.0 mi South 3.5 mph - N/A   Clear
3:35 AM 60.8 °F 50.0 °F 68% 29.76 in 10.0 mi Calm Calm - N/A   Clear
3:55 AM 62.6 °F 50.0 °F 63% 29.76 in 10.0 mi Calm Calm - N/A   Clear
4:15 AM 62.6 °F 50.0 °F 63% 29.76 in 10.0 mi South 3.5 mph - N/A   Clear
4:35 AM 62.6 °F 51.8 °F 68% 29.76 in 10.0 mi South 3.5 mph - N/A   Clear
4:55 AM 59.0 °F 50.0 °F 72% 29.75 in 10.0 mi South 4.6 mph - N/A   Clear
5:15 AM 60.8 °F 51.8 °F 72% 29.74 in 10.0 mi South 4.6 mph - N/A   Clear
5:35 AM 60.8 °F 51.8 °F 72% 29.74 in 10.0 mi SSE 4.6 mph - N/A   Clear
5:55 AM 59.0 °F 50.0 °F 72% 29.73 in 10.0 mi Calm Calm - N/A   Clear
6:15 AM 60.8 °F 51.8 °F 72% 29.73 in 10.0 mi SSE 3.5 mph - N/A   Clear
6:35 AM 57.2 °F 48.2 °F 72% 29.73 in 10.0 mi South 5.8 mph - N/A   Clear
6:55 AM 60.8 °F 51.8 °F 72% 29.72 in 10.0 mi South 8.1 mph - N/A   Clear
7:15 AM 62.6 °F 53.6 °F 72% 29.72 in 10.0 mi SSE 6.9 mph - N/A   Clear
7:35 AM 64.4 °F 53.6 °F 68% 29.72 in 10.0 mi South 5.8 mph - N/A   Clear
7:55 AM 64.4 °F 53.6 °F 68% 29.72 in 10.0 mi South 6.9 mph - N/A   Clear
8:15 AM 66.2 °F 55.4 °F 68% 29.71 in 10.0 mi South 10.4 mph - N/A   Clear
9:15 AM 75.2 °F 53.6 °F 47% 29.68 in 10.0 mi South 13.8 mph - N/A   Clear
9:35 AM 78.8 °F 51.8 °F 39% 29.66 in 10.0 mi South 17.3 mph 21.9 mph N/A   Clear
9:55 AM 80.6 °F 51.8 °F 37% 29.66 in 10.0 mi SSW 15.0 mph - N/A   Clear
10:15 AM 82.4 °F 50.0 °F 32% 29.65 in 10.0 mi SSW 16.1 mph 21.9 mph N/A   Clear
10:35 AM 84.2 °F 48.2 °F 29% 29.64 in 10.0 mi SSW 19.6 mph - N/A   Clear
10:55 AM 86.0 °F 48.2 °F 27% 29.64 in 10.0 mi SSW 18.4 mph 24.2 mph N/A   Clear
11:15 AM 87.8 °F 46.4 °F 24% 29.63 in 10.0 mi SW 19.6 mph 26.5 mph N/A   Clear
11:35 AM 89.6 °F 46.4 °F 22% 29.65 in 10.0 mi SW 17.3 mph 28.8 mph N/A   Clear
11:55 AM 91.4 °F 46.4 °F 21% 29.64 in 10.0 mi SW 18.4 mph - N/A   Clear
12:15 PM 93.2 °F 44.6 °F 19% 29.63 in 10.0 mi WSW 17.3 mph 26.5 mph N/A   Clear
12:35 PM 96.8 °F 39.2 °F 14% 29.61 in 10.0 mi WSW 20.7 mph 26.5 mph N/A   Clear
12:55 PM 98.6 °F 30.2 °F 9% 29.60 in 10.0 mi West 27.6 mph 36.8 mph N/A   Clear
1:15 PM 100.4 °F 30.2 °F 9% 29.59 in 10.0 mi WSW 26.5 mph 35.7 mph N/A   Clear
1:35 PM 98.6 °F 33.8 °F 10% 29.59 in 10.0 mi West 26.5 mph 32.2 mph N/A   Clear
1:55 PM 96.8 °F 37.4 °F 13% 29.60 in 10.0 mi WNW 26.5 mph 32.2 mph N/A   Clear
2:15 PM 96.8 °F 37.4 °F 13% 29.60 in 10.0 mi WNW 26.5 mph 32.2 mph N/A   Clear
2:35 PM 98.6 °F 33.8 °F 10% 29.60 in 10.0 mi WNW 24.2 mph 29.9 mph N/A   Clear
2:55 PM 93.2 °F 35.6 °F 13% 29.61 in 10.0 mi WNW 18.4 mph 31.1 mph N/A   Clear
3:15 PM 93.2 °F 37.4 °F 14% 29.62 in 10.0 mi NW 21.9 mph 27.6 mph N/A   Clear
3:35 PM 96.8 °F 37.4 °F 13% 29.62 in 10.0 mi WNW 19.6 mph 26.5 mph N/A   Clear
3:55 PM 95.0 °F 37.4 °F 13% 29.62 in 10.0 mi NW 15.0 mph 29.9 mph N/A   Clear
4:15 PM 96.8 °F 37.4 °F 13% 29.61 in 10.0 mi NW 17.3 mph 25.3 mph N/A   Clear
4:35 PM 96.8 °F 33.8 °F 11% 29.62 in 10.0 mi NNW 15.0 mph 21.9 mph N/A   Clear
4:55 PM 95.0 °F 33.8 °F 12% 29.62 in 10.0 mi NW 18.4 mph 28.8 mph N/A   Clear
5:15 PM 96.8 °F 33.8 °F 11% 29.62 in 10.0 mi NNW 16.1 mph 21.9 mph N/A   Clear
5:35 PM 95.0 °F 32.0 °F 11% 29.63 in 10.0 mi NNW 17.3 mph 23.0 mph N/A   Clear
5:55 PM 93.2 °F 30.2 °F 11% 29.64 in 10.0 mi NNW 17.3 mph 27.6 mph N/A   Clear
6:15 PM 93.2 °F 30.2 °F 11% 29.64 in 10.0 mi NNW 16.1 mph 27.6 mph N/A   Clear
6:35 PM 91.4 °F 30.2 °F 11% 29.65 in 10.0 mi North 19.6 mph 27.6 mph N/A   Clear
6:55 PM 89.6 °F 28.4 °F 11% 29.66 in 10.0 mi North 20.7 mph 27.6 mph N/A   Clear
7:15 PM 87.8 °F 26.6 °F 11% 29.67 in 10.0 mi North 20.7 mph 26.5 mph N/A   Clear
7:35 PM 87.8 °F 21.2 °F 9% 29.68 in 10.0 mi North 16.1 mph 23.0 mph N/A   Clear
7:55 PM 84.2 °F 19.4 °F 9% 29.69 in 10.0 mi North 15.0 mph - N/A   Clear
8:15 PM 84.2 °F 21.2 °F 10% 29.70 in 10.0 mi North 15.0 mph 19.6 mph N/A   Clear
8:35 PM 82.4 °F 21.2 °F 10% 29.71 in 10.0 mi North 10.4 mph 21.9 mph N/A   Clear
8:55 PM 80.6 °F 21.2 °F 11% 29.72 in 10.0 mi North 11.5 mph - N/A   Clear
9:15 PM 78.8 °F 24.8 °F 14% 29.73 in 10.0 mi NNW 10.4 mph - N/A   Clear
9:35 PM 77.0 °F 24.8 °F 14% 29.74 in 10.0 mi North 10.4 mph - N/A   Clear
9:55 PM 75.2 °F 26.6 °F 17% 29.75 in 10.0 mi NNW 8.1 mph - N/A   Clear
10:15 PM 75.2 °F 24.8 °F 15% 29.76 in 10.0 mi North 8.1 mph - N/A   Clear
10:35 PM 73.4 °F 24.8 °F 16% 29.77 in 10.0 mi North 6.9 mph - N/A   Clear
10:55 PM 71.6 °F 24.8 °F 17% 29.77 in 10.0 mi North 8.1 mph - N/A   Clear
11:15 PM 71.6 °F 24.8 °F 17% 29.78 in 10.0 mi North 9.2 mph - N/A   Clear
11:35 PM 71.6 °F 26.6 °F 19% 29.79 in 10.0 mi North 8.1 mph - N/A   Clear
11:55 PM 71.6 °F 28.4 °F 20% 29.80 in 10.0 mi North 13.8 mph 23.0 mph N/A   Clear